FW0784 Weather Reports


time (UTC)temp
C
wind
direction
speed
KPH
gust
KPH
rain 1hr
cm
rain 24hr
cm
rain mn
cm
humidity
%
barometer
mb
20260505083048 12 53 27.4 40.2 0.00 0.03 0.00 49 1006.6
20260505081557 12 56 20.9 37.0 0.00 0.03 0.00 50 1006.8
20260505080051 12 13 30.6 41.8 0.00 0.03 0.00 48 1006.7
20260505074541 13 23 20.9 32.2 0.00 0.03 0.00 48 1006.9
20260505073038 13 33 19.3 32.2 0.00 0.03 0.00 48 1006.9
20260505071545 13 56 24.1 35.4 0.00 0.03 0.00 47 1006.7
20260505070038 13 35 24.1 40.2 0.00 0.03 0.00 48 1006.5
20260505064530 13 35 22.5 43.5 0.00 0.03 0.00 47 1006.2
20260505063027 14 35 29.0 41.8 0.00 0.03 0.00 46 1006.0
20260505061530 14 39 32.2 43.5 0.00 0.03 0.00 45 1005.5
20260505060023 14 35 30.6 43.5 0.00 0.03 0.00 44 1005.4
20260505054517 15 51 32.2 45.1 0.00 0.03 0.00 43 1005.0
20260505053012 16 53 29.0 41.8 0.00 0.03 0.00 41 1004.7
20260505051527 16 30 25.7 43.5 0.00 0.03 0.00 40 1004.7
20260505041501 19 36 17.7 29.0 0.00 0.03 0.03 37 1004.5
20260505040001 19 37 20.9 35.4 0.03 0.03 0.03 36 1004.3
20260505034600 19 29 19.3 32.2 0.03 0.03 0.03 38 1003.9
20260505033100 20 33 14.5 35.4 0.03 0.03 0.03 39 1003.8
20260505031604 20 359 20.9 32.2 0.03 0.03 0.03 40 1003.4
20260505024558 22 21 24.1 37.0 0.00 0.00 0.00 39 1002.0
20260505023058 22 35 24.1 35.4 0.00 0.00 0.00 43 1000.6
20260505021557 23 100 3.2 11.3 0.00 0.00 0.00 45 1000.4
20260505020103 23 104 4.8 11.3 0.00 0.00 0.00 46 1000.3
20260505014556 23 114 1.6 4.8 0.00 0.00 0.00 47 1000.2
20260505013102 23 42 6.4 12.9 0.00 0.00 0.00 47 999.7
20260505011553 25 33 3.2 6.4 0.00 0.00 0.00 41 999.7
20260505010107 26 113 1.6 4.8 0.00 0.00 0.00 38 1000.0
20260505004548 26 81 1.6 4.8 0.00 0.00 0.00 36 999.9
20260505003054 27 70 1.6 3.2 0.00 0.00 0.00 33 999.6
20260505001548 28 91 1.6 8.0 0.00 0.00 0.00 31 999.6
20260505000048 28 85 1.6 4.8 0.00 0.00 0.00 28 999.7
20260504234546 28 120 0.0 4.8 0.00 0.00 0.00 27 999.8
20260504233100 28 107 1.6 6.4 0.00 0.00 0.00 27 999.9
20260504231546 28 285 1.6 4.8 0.00 0.00 0.00 29 1000.0
20260504230051 28 91 0.0 4.8 0.00 0.00 0.00 31 999.9
20260504224541 28 149 3.2 6.4 0.00 0.00 0.00 29 999.9
20260504223038 28 154 1.6 9.7 0.00 0.00 0.00 31 1000.1
20260504221538 28 135 3.2 8.0 0.00 0.00 0.00 32 999.9
20260504220036 28 87 4.8 11.3 0.00 0.00 0.00 30 999.9
20260504214534 28 80 3.2 11.3 0.00 0.00 0.00 32 1000.1
20260504213034 28 145 1.6 9.7 0.00 0.00 0.00 31 1000.1
20260504211536 28 172 4.8 12.9 0.00 0.00 0.00 31 1000.2
20260504210034 28 55 6.4 12.9 0.00 0.00 0.00 31 1000.4
20260504204532 28 159 4.8 12.9 0.00 0.00 0.00 31 1000.6
20260504203038 28 159 4.8 14.5 0.00 0.00 0.00 31 1000.8
20260504201525 28 125 6.4 12.9 0.00 0.00 0.00 30 1001.1
20260504200024 28 160 4.8 12.9 0.00 0.00 0.00 32 1001.2
20260504194523 28 189 6.4 14.5 0.00 0.00 0.00 30 1001.2
20260504193021 28 212 8.0 16.1 0.00 0.00 0.00 31 1001.4
20260504191524 30 359 3.2 16.1 0.00 0.00 0.00 24 1001.4
20260504190019 30 79 4.8 25.7 0.00 0.00 0.00 28 1001.6
20260504184518 30 260 1.6 8.0 0.00 0.00 0.00 23 1001.7
20260504183016 30 62 1.6 11.3 0.00 0.00 0.00 25 1001.7
20260504181514 30 55 3.2 9.7 0.00 0.00 0.00 29 1001.6
20260504180011 30 58 3.2 16.1 0.00 0.00 0.00 30 1001.7
20260504174507 28 137 1.6 11.3 0.00 0.00 0.00 30 1001.9
20260504173005 28 28 1.6 8.0 0.00 0.00 0.00 33 1002.1
20260504171502 27 244 1.6 12.9 0.00 0.00 0.00 34 1002.0